Dewpoint
3 1 1 1 1 1 2 2 -3 -4 -3 0 1 2 7 8 6 6 5 3 1 -1 -3 1 1 -2 -4 -3 -3 -2 -1 -3 -5 -4 -2 -2 -4 1 3 9 9 9 10 10 11
1 1 0 1 1 1 2 2 -1 -6 -2 -3 1 1 3 7 7 6 2 2 3 2 -0 -2 1 -1 -2 -3 -3 -2 0 -2 -7 -7 -3 -2 -4 -1 8 8 9 10 10 10 10
1 -0 0 0 1 1 0 -3 -3 -3 -5 -4 2 3 2 4 7 6 4 2 2 2 1 -0 0 -0 -3 -4 -3 -2 -2 -4 -6 -7 -4 -3 -3 1 8 7 8 10 11 11 10
-1 -0 0 0 -0 -0 2 -2 -4 -1 -0 -4 -4 2 3 2 6 7 6 1 1 3 3 3 2 -1 -4 -3 -3 -3 -4 -6 -8 -5 -3 -3 -3 3 4 3 3 4 8 11 11
-1 -1 -1 -0 -0 -0 1 1 -2 1 1 1 -4 1 1 2 3 6 5 4 2 4 7 4 1 -2 -4 -4 -3 -5 -5 -5 -7 -8 -5 -3 -3 -0 0 -2 4 6 10 11 11
0 -1 -1 -1 -1 -0 -0 0 0 1 1 -5 -5 0 3 0 1 4 5 5 7 6 4 4 0 -2 -5 -5 -4 -4 -6 -7 -7 -7 -2 -3 -3 -0 -2 4 6 8 10 11 11
1 -0 -1 -2 -1 -1 -0 1 -0 -10 -11 -11 -6 0 0 -1 -1 -4 5 5 8 7 5 2 0 -1 -6 -4 -4 -4 -6 -7 -7 -6 -2 -4 -3 -3 0 9 9 10 11 12 12
-0 1 1 -1 -1 -1 -3 -7 -6 -10 -13 -13 -2 0 0 -8 -8 -3 1 4 6 8 7 1 2 -1 -6 -6 -5 -5 -6 -7 -8 -5 -4 -3 0 -4 8 8 11 11 11 12 11
-0 1 1 0 0 -3 -7 -5 -6 -7 -7 -5 1 0 1 -1 -4 -6 -2 4 6 7 7 5 3 -1 -3 -3 -3 -5 -3 -6 -7 -5 -4 -2 -0 -4 10 10 11 11 11 11 11
-1 -1 -1 0 -0 -2 -5 -6 -5 -0 1 1 0 1 -1 -0 2 5 0 6 7 8 7 4 2 -0 -2 -3 -2 -2 -3 -4 -6 -3 -4 -3 -3 -4 10 10 10 11 11 11 11
-1 -1 -1 -1 -2 -2 -4 -6 -5 -6 -5 -2 -2 -2 0 -0 0 2 4 6 7 6 5 2 4 4 0 -4 -5 -5 -4 -4 -5 -3 -4 -2 -5 -3 7 10 10 11 11 11 10
-1 0 1 -2 -5 -2 -3 -2 -1 -1 -2 -5 -2 -2 -2 -3 -5 3 5 6 7 7 1 2 5 2 -1 -4 -5 -5 -5 -4 -2 -2 -6 -3 -2 -4 -2 6 9 10 11 11 11
-2 -0 -2 -3 -3 -2 -2 -2 -1 -1 -2 -3 -1 -1 0 0 -2 0 4 6 6 6 4 4 2 0 -1 -2 -3 -5 -5 -3 -3 -2 -3 -4 -4 -4 -4 -3 4 8 10 10 10
-4 -2 -2 -5 -4 -2 -1 -2 -1 -1 -5 -4 -2 -1 -1 -1 1 -1 3 5 6 7 4 2 1 1 -1 -1 -3 -1 -6 -2 0 -1 -0 -4 -5 -5 -4 -2 -3 -0 6 9 10
-2 -2 -3 -2 -1 -1 -0 -1 -1 -1 -7 -6 -2 -3 -1 1 1 2 -0 3 6 6 3 4 2 1 1 -1 -4 -2 -3 -1 -1 -1 -0 0 -1 -4 -2 -1 -2 -3 -3 5 6
-2 -2 -4 -5 -2 -1 -1 -0 -1 -7 -5 -2 -1 -0 1 1 0 1 4 3 6 4 2 1 -1 -0 -1 -2 -4 -0 1 1 2 1 2 -1 -2 -5 -0 -3 -5 -3 -4 -4 0
-2 -4 -5 -4 -2 -2 -1 -1 -6 -5 -4 -2 -1 0 1 2 2 2 4 5 6 7 7 3 1 -1 -3 -1 -1 -0 -0 4 4 3 3 1 0 -5 -5 -3 -6 -4 -4 -5 -5
-4 -7 -10 -11 -5 -3 -2 -6 -5 -5 -4 -3 -2 -1 1 2 3 3 3 4 5 5 6 7 6 0 -2 -2 -1 -0 -3 3 2 5 4 1 3 -1 -4 -5 -4 -5 -5 -5 -5
-4 -6 -11 -14 -10 -6 -6 -3 -1 -1 -1 -1 -2 1 0 2 2 3 4 4 5 4 5 6 4 -0 -2 -3 -3 -1 -0 -2 1 1 3 2 0 -2 -2 -1 -1 -3 -4 -5 -5
-6 -8 -11 -13 -10 -9 -5 -3 -2 -4 -4 -2 1 0 1 1 0 2 3 3 4 3 1 1 4 0 -1 -2 -2 -2 -4 0 1 4 5 2 1 -0 -1 -1 -2 -1 -2 -4 -5
-8 -8 -12 -14 -10 -7 -5 -3 -3 -5 -5 -1 -1 1 1 0 1 1 3 3 2 3 1 -0 1 2 0 1 1 -0 -1 -1 -2 2 3 2 1 -2 -2 -2 -2 -2 -3 -4 -4
-9 -7 -10 -13 -7 -8 -7 -4 -5 -4 -6 -3 -4 -1 -1 -2 1 2 2 2 1 1 3 3 0 4 3 -1 -2 -2 -1 -0 1 2 1 2 -0 -5 -4 -3 -3 -3 -3 -3 -2
-7 -8 -9 -11 -7 -5 -6 -5 -5 -5 -5 -4 -4 -4 -4 -3 -0 -0 -1 -2 -2 1 5 4 5 4 4 1 -1 0 -1 -1 -1 -0 1 2 1 -5 -3 -3 -3 -2 -2 -2 -2
-7 -8 -8 -6 -5 -6 -5 -5 -5 -7 -5 -6 -4 -5 -4 -3 -4 -4 -2 -1 -5 2 3 3 5 4 4 3 2 2 0 -1 -0 2 1 0 -1 -4 -5 -3 -3 -3 -2 -1 0
-7 -5 -6 -7 -6 -6 -7 -9 -5 -5 -6 -6 -5 -5 -2 -2 -4 -4 -5 -4 -4 -0 1 4 5 5 4 2 2 2 2 1 1 -0 1 -0 -1 -3 -5 -6 -6 -5 -2 -0 -0
-6 -6 -5 -5 -7 -11 -9 -10 -5 -5 -5 -6 -4 -4 -3 -3 -4 -3 -3 -4 -2 -2 -1 1 5 4 5 2 0 2 1 0 1 0 -0 -1 -1 -4 -5 -4 -2 -3 -3 -2 -1
-6 -5 -5 -7 -11 -11 -8 -5 -6 -5 -7 -5 -4 -3 -4 -4 -2 -3 -2 -2 -2 -1 -1 0 4 5 6 2 2 2 1 1 1 -0 0 2 -0 -5 -4 -3 -4 -4 -3 -3 -3
Wind_Speed
22 20 16 14 14 14 13 13 11 14 15 15 18 19 11 11 14 17 22 20 25 8 22 22 19 17 19 16 9 8 4 5 6 7 4 16 6 11 10 21 9 11 11 19 33
21 19 16 14 12 12 14 11 11 12 10 12 14 17 20 7 15 20 24 21 10 17 20 26 22 18 12 11 9 4 4 10 6 5 4 12 11 20 9 13 5 9 11 36 32
21 19 16 15 12 11 11 10 11 11 11 12 9 16 19 13 8 16 20 25 21 23 16 22 21 17 7 9 8 6 6 5 4 5 2 9 11 9 21 3 14 26 34 42 36
21 19 18 16 15 13 11 12 12 11 12 12 11 12 16 11 6 9 7 18 22 21 23 24 21 12 6 7 9 6 5 9 6 4 5 6 18 7 21 8 21 27 37 43 41
22 21 19 16 16 15 12 11 12 12 11 13 13 11 10 6 12 12 9 3 27 26 28 26 25 11 6 6 7 4 5 11 9 1 1 11 5 11 12 7 20 30 39 44 41
24 21 20 19 17 16 15 14 13 13 12 12 10 9 6 10 17 11 7 5 14 29 31 28 19 19 8 7 6 11 4 3 6 6 6 7 2 10 7 15 26 35 43 44 44
26 24 21 19 19 19 17 16 16 14 13 13 12 8 9 20 18 17 11 5 9 29 30 29 11 23 6 4 7 7 6 4 1 7 5 12 1 5 17 25 33 35 41 44 43
26 26 25 22 21 20 20 18 16 14 13 14 10 7 9 10 18 22 12 9 11 23 27 30 15 28 5 7 4 7 5 4 2 6 3 6 7 2 22 32 28 34 38 42 41
26 26 26 23 23 22 19 18 15 10 7 5 3 5 9 6 10 16 17 10 12 15 28 21 24 7 5 6 4 1 5 5 2 4 5 4 4 4 22 23 27 32 37 39 39
29 28 25 24 23 21 19 16 6 7 10 8 1 2 5 5 8 3 10 12 9 20 19 16 10 4 3 5 14 7 7 3 7 6 3 5 3 3 20 23 23 24 30 37 39
30 29 25 22 20 18 21 6 8 2 10 1 4 9 21 14 11 9 8 15 7 20 7 9 9 17 21 6 5 6 6 5 2 5 5 7 4 7 13 14 15 22 27 33 39
32 30 25 19 13 13 18 11 8 6 6 2 3 13 16 13 7 4 10 11 9 12 8 5 21 12 11 7 5 7 9 4 3 3 3 5 6 1 6 8 25 32 31 34 34
31 26 22 17 6 10 16 15 11 9 1 5 5 6 6 7 5 5 7 8 8 13 15 9 3 12 8 6 6 3 9 5 7 4 4 6 5 4 4 7 16 20 31 30 38
25 22 22 13 5 11 13 15 15 7 3 5 3 3 9 4 6 13 12 4 7 14 12 0 5 14 8 11 7 3 5 6 10 6 5 1 4 6 6 6 7 24 28 36 35
17 20 22 17 9 12 14 16 14 3 5 8 4 7 10 3 12 4 16 9 7 7 7 9 16 17 18 11 7 3 7 7 3 5 5 1 3 6 5 7 11 19 36 38 40
13 18 21 18 12 9 14 15 7 5 3 7 4 9 7 3 5 7 6 15 2 7 5 4 8 10 6 7 6 8 8 8 5 3 2 7 7 5 6 12 14 7 35 43 42
11 18 23 22 21 17 14 11 5 6 6 9 7 8 10 3 2 2 2 7 5 8 7 4 4 4 11 12 3 5 8 2 2 1 5 1 5 9 6 7 10 19 36 44 45
6 17 23 25 18 14 12 5 9 5 4 5 6 13 4 6 1 3 2 2 10 3 5 6 5 9 8 17 12 15 12 6 8 5 3 4 7 7 8 12 15 17 32 36 42
3 10 27 25 15 15 4 6 3 4 6 7 14 3 3 2 2 2 3 2 5 7 5 5 3 4 4 4 11 8 12 6 7 2 4 5 5 8 3 3 4 13 14 29 38
4 8 31 19 16 11 7 3 2 4 12 4 4 5 4 6 5 4 3 3 4 10 3 6 5 3 0 3 2 14 8 2 2 6 5 2 3 6 6 9 9 8 22 30 33
6 4 29 16 9 16 4 4 5 11 14 4 6 5 6 6 6 5 5 6 8 9 5 4 4 1 6 8 11 3 11 4 5 4 5 2 5 8 10 9 13 14 30 32 33
8 4 29 8 10 4 3 8 10 8 13 4 3 6 6 8 6 2 7 3 9 7 2 1 3 5 17 1 2 5 6 4 6 8 2 3 5 1 4 4 8 18 25 25 26
5 5 20 15 4 6 6 4 4 7 7 8 4 6 12 5 5 10 8 8 17 9 5 4 1 7 3 2 2 6 7 14 9 4 10 8 5 2 5 6 8 12 16 16 20
4 4 9 17 10 6 6 5 10 14 4 8 5 8 13 3 5 5 7 6 19 9 17 4 3 3 10 16 12 12 13 8 16 11 5 11 6 5 6 7 7 16 15 15 17
7 3 4 3 6 6 4 2 7 9 7 10 5 10 10 6 9 5 7 11 9 15 10 4 3 3 1 4 16 20 16 12 13 19 13 13 9 9 8 8 9 15 13 15 18
6 5 4 4 4 4 7 4 6 6 4 6 2 15 10 4 3 11 8 4 3 8 9 7 0 4 2 4 3 13 13 22 16 16 16 8 11 5 13 6 5 11 16 20 22
9 6 3 5 4 3 2 5 6 15 6 11 11 14 8 3 11 17 16 14 10 8 5 5 3 3 4 2 4 2 14 14 19 14 12 15 12 6 7 7 15 25 24 27 25
Wind_Direction
337 330 321 300 290 289 288 281 293 287 281 293 291 280 268 239 232 234 227 219 208 210 181 183 177 177 176 187 179 154 88 172 195 154 192 162 130 159 140 139 152 178 164 173 159
343 339 332 320 306 302 300 302 306 294 295 291 293 293 262 289 235 245 237 230 217 192 192 190 186 175 179 187 176 133 143 196 193 183 207 177 159 149 137 134 128 142 152 155 160
350 348 344 337 328 309 296 305 299 302 302 295 300 291 291 299 265 272 257 236 213 199 203 198 189 174 176 178 182 178 177 198 206 206 228 179 153 153 133 223 183 162 152 159 167
346 347 345 337 332 325 309 307 305 301 297 297 304 291 300 309 212 141 204 213 212 204 199 190 186 182 150 181 182 147 205 173 153 90 126 177 154 139 159 174 192 177 166 167 174
346 344 339 339 335 333 326 310 308 304 299 291 302 313 319 296 257 162 127 185 197 197 193 181 181 179 173 182 138 180 187 197 172 118 271 161 218 173 176 166 172 172 170 174 177
349 343 341 337 335 333 328 320 304 301 296 290 292 304 307 296 265 261 264 34 196 192 194 190 186 182 181 186 171 195 171 169 179 160 153 140 153 153 175 156 163 172 175 180 182
352 348 342 341 338 332 328 320 309 296 290 283 285 284 263 253 281 280 251 216 177 199 196 194 178 191 171 126 179 162 138 30 162 161 144 124 66 225 166 163 163 174 180 183 187
343 345 344 340 336 330 324 323 312 294 283 276 276 281 260 284 258 267 262 240 221 200 199 198 184 194 190 137 93 107 66 140 280 140 131 151 220 182 167 165 166 174 182 187 190
347 345 341 337 336 335 334 335 320 307 306 269 189 226 263 315 264 268 255 232 211 193 200 201 199 209 165 125 76 7 161 168 195 215 123 137 208 156 174 173 167 177 185 190 193
348 341 337 337 339 346 345 341 23 58 64 95 115 247 307 347 322 227 240 199 183 161 166 179 179 152 122 153 191 168 123 146 162 197 79 141 184 148 177 179 178 183 186 192 197
348 345 342 341 344 1 354 10 22 352 11 81 261 272 287 291 329 215 238 204 172 174 158 172 171 201 191 127 139 128 116 135 190 188 118 174 172 188 177 179 177 193 195 198 203
348 347 346 350 353 18 14 60 35 349 311 47 316 282 292 309 274 246 231 182 195 177 126 131 208 191 153 142 129 143 155 154 71 66 90 135 210 73 178 208 194 198 202 205 206
354 357 360 353 31 26 34 26 1 343 269 291 311 336 343 325 258 257 245 212 191 170 176 185 227 155 153 151 157 140 171 163 145 110 60 108 325 229 221 223 220 213 213 211 212
3 15 8 13 30 19 17 357 350 359 60 323 2 309 353 296 271 239 223 207 178 189 177 17 197 159 144 179 142 140 166 131 130 109 172 141 238 253 209 209 205 219 220 218 217
25 24 13 19 22 9 336 335 336 337 57 305 325 332 316 258 315 167 215 258 172 186 152 190 166 166 177 178 133 182 132 128 113 106 108 299 80 266 131 211 225 217 220 223 221
25 13 3 5 9 346 330 331 325 42 309 329 330 333 321 263 238 322 173 226 230 170 107 133 159 155 148 137 134 157 88 50 55 83 260 194 156 251 184 205 215 216 219 222 221
34 12 13 9 344 341 335 325 37 80 338 316 331 322 322 292 224 245 304 190 154 159 156 87 160 126 137 125 90 142 126 66 14 294 216 229 180 243 243 233 201 204 217 219 222
50 18 17 6 350 341 343 43 60 251 282 295 297 310 308 342 2 173 203 256 203 94 114 146 169 171 180 177 183 178 166 151 178 186 173 102 213 243 224 238 226 224 226 221 220
360 354 6 3 357 350 7 47 6 318 330 304 312 315 328 307 277 335 206 212 240 194 143 147 123 180 180 142 153 190 206 156 102 31 94 198 261 293 162 257 253 214 195 223 225
2 354 8 10 3 6 62 86 292 335 328 301 306 12 314 321 4 22 30 202 324 214 294 184 124 198 125 133 42 186 156 93 51 149 200 284 248 217 214 214 225 225 222 221 221
3 47 2 13 27 48 68 342 305 311 351 327 336 294 355 341 326 332 357 19 2 325 267 189 129 170 134 207 174 135 191 184 141 145 167 148 250 211 207 214 199 216 222 225 220
36 49 8 31 54 57 35 323 321 315 347 331 307 304 13 319 315 0 23 0 3 300 157 286 159 142 196 342 176 177 178 155 199 216 109 144 266 288 292 331 208 218 228 230 227
49 21 22 37 64 29 326 306 307 333 327 345 318 355 342 346 347 3 345 310 352 349 0 326 332 147 110 333 28 187 205 201 210 95 202 200 250 338 298 282 245 231 240 242 237
32 24 16 45 58 36 3 351 346 332 300 340 296 340 343 337 5 293 332 321 339 354 329 274 138 149 197 213 194 203 208 209 209 222 210 226 214 270 243 247 241 232 238 230 226
47 48 13 5 7 14 345 9 348 354 339 332 337 1 351 316 323 11 357 331 337 4 339 12 136 180 297 337 190 214 208 189 203 218 211 231 203 226 234 237 232 240 231 224 229
70 33 14 38 339 34 352 329 331 337 301 309 316 317 316 287 268 304 320 347 317 343 2 342 354 151 305 32 43 207 220 229 222 223 231 215 227 208 241 239 258 236 229 231 232
46 61 31 357 7 52 322 336 318 324 274 270 298 321 323 317 314 294 287 276 280 318 342 313 301 157 182 20 40 327 213 212 226 228 207 220 219 194 228 241 251 260 251 250 246
Height
1457 1452 1449 1446 1445 1444 1443 1442 1441 1440 1440 1440 1438 1438 1438 1439 1440 1442 1440 1443 1448 1452 1454 1459 1461 1465 1469 1473 1474 1475 1488 1494 1487 1490 1481 1482 1485 1489 1490 1493 1499 1503 1505 1508 1515
1457 1452 1448 1445 1443 1442 1441 1439 1439 1438 1437 1437 1436 1436 1436 1436 1436 1435 1439 1441 1445 1449 1452 1455 1459 1463 1468 1470 1472 1473 1484 1483 1475 1476 1477 1477 1479 1484 1490 1494 1499 1502 1504 1509 1515
1456 1451 1448 1445 1442 1440 1439 1438 1437 1437 1435 1434 1434 1433 1431 1431 1433 1433 1436 1438 1443 1445 1451 1455 1459 1463 1465 1468 1468 1470 1476 1472 1470 1472 1474 1477 1480 1482 1485 1495 1491 1494 1501 1508 1514
1456 1451 1448 1444 1441 1439 1437 1437 1435 1435 1434 1433 1433 1433 1430 1433 1430 1428 1428 1431 1438 1442 1447 1450 1455 1460 1463 1466 1465 1469 1467 1468 1469 1469 1472 1477 1477 1480 1480 1483 1488 1493 1497 1504 1510
1455 1451 1447 1444 1441 1438 1436 1434 1434 1433 1432 1432 1431 1431 1429 1434 1424 1424 1425 1427 1431 1437 1441 1445 1450 1455 1460 1461 1464 1465 1464 1466 1466 1468 1470 1474 1476 1475 1480 1482 1487 1494 1499 1503 1509
1454 1450 1446 1443 1440 1437 1435 1433 1432 1430 1429 1429 1429 1428 1428 1430 1421 1422 1424 1425 1431 1434 1439 1443 1446 1453 1456 1458 1461 1460 1462 1463 1465 1467 1469 1473 1476 1477 1481 1481 1486 1492 1497 1502 1507
1455 1449 1445 1441 1438 1435 1433 1431 1429 1427 1426 1426 1426 1427 1429 1422 1418 1421 1424 1428 1429 1432 1435 1441 1445 1452 1454 1458 1457 1459 1463 1464 1465 1466 1470 1472 1481 1480 1477 1482 1484 1491 1496 1500 1506
1455 1450 1445 1440 1437 1433 1429 1427 1425 1423 1423 1423 1424 1425 1421 1418 1418 1420 1422 1424 1428 1430 1435 1440 1446 1450 1453 1454 1457 1463 1468 1475 1467 1465 1469 1471 1485 1477 1479 1479 1487 1490 1496 1500 1504
1453 1448 1443 1439 1435 1431 1427 1425 1422 1420 1420 1420 1423 1424 1418 1416 1414 1415 1419 1422 1425 1428 1434 1441 1446 1449 1451 1456 1465 1463 1477 1474 1467 1466 1467 1472 1479 1477 1480 1482 1484 1489 1493 1499 1504
1451 1446 1442 1437 1434 1429 1425 1422 1421 1420 1421 1422 1423 1426 1418 1417 1415 1415 1416 1419 1423 1427 1434 1440 1444 1449 1452 1456 1457 1467 1472 1469 1470 1468 1467 1473 1476 1478 1479 1482 1484 1489 1493 1496 1500
1450 1444 1439 1436 1433 1430 1425 1422 1424 1424 1422 1423 1424 1421 1416 1417 1416 1415 1417 1418 1421 1424 1428 1433 1440 1437 1435 1446 1447 1456 1462 1464 1464 1464 1467 1475 1474 1476 1479 1482 1486 1489 1491 1494 1497
1448 1443 1438 1436 1433 1431 1428 1427 1431 1434 1429 1422 1422 1418 1416 1414 1415 1413 1416 1415 1416 1418 1425 1435 1428 1434 1439 1443 1448 1453 1460 1462 1465 1465 1466 1477 1477 1476 1478 1477 1478 1482 1487 1491 1497
1448 1443 1439 1435 1434 1433 1430 1431 1431 1429 1430 1424 1421 1419 1416 1415 1414 1409 1413 1409 1412 1416 1418 1423 1425 1433 1438 1445 1449 1455 1458 1464 1465 1469 1473 1477 1483 1477 1476 1477 1479 1481 1484 1488 1491
1448 1445 1441 1436 1437 1435 1433 1432 1430 1429 1438 1426 1421 1420 1418 1415 1412 1408 1412 1412 1411 1411 1420 1425 1426 1431 1440 1444 1448 1455 1455 1458 1467 1472 1488 1475 1497 1480 1476 1476 1476 1477 1480 1482 1487
1450 1447 1444 1439 1440 1438 1437 1433 1430 1430 1462 1427 1423 1421 1418 1418 1415 1407 1411 1413 1407 1409 1415 1420 1423 1429 1435 1438 1445 1451 1453 1460 1466 1475 1482 1482 1495 1474 1475 1478 1473 1469 1471 1475 1479
1453 1449 1446 1443 1441 1439 1435 1432 1431 1444 1461 1434 1424 1423 1419 1414 1412 1410 1408 1413 1407 1412 1412 1417 1420 1427 1431 1440 1444 1451 1457 1467 1477 1481 1494 1479 1483 1472 1474 1459 1457 1462 1463 1467 1471
1454 1451 1446 1443 1441 1437 1434 1432 1444 1462 1439 1436 1428 1424 1419 1414 1411 1411 1409 1407 1402 1407 1416 1415 1423 1423 1426 1441 1446 1447 1455 1489 1497 1503 1482 1479 1480 1458 1452 1451 1448 1449 1451 1456 1463
1455 1452 1449 1445 1442 1438 1435 1438 1462 1455 1452 1436 1429 1422 1419 1415 1413 1411 1411 1407 1405 1404 1415 1416 1433 1420 1421 1422 1429 1434 1439 1465 1486 1490 1479 1481 1477 1452 1441 1441 1443 1446 1447 1452 1456
1455 1453 1448 1444 1441 1438 1438 1456 1458 1453 1450 1442 1430 1423 1421 1418 1417 1410 1409 1410 1401 1400 1405 1418 1418 1415 1417 1419 1424 1441 1442 1440 1466 1472 1476 1469 1461 1442 1440 1441 1440 1442 1445 1446 1450
1455 1453 1452 1447 1444 1441 1446 1458 1458 1453 1449 1444 1435 1428 1424 1419 1418 1412 1411 1405 1402 1399 1401 1403 1417 1416 1418 1419 1424 1424 1428 1449 1458 1473 1465 1464 1460 1447 1439 1439 1439 1439 1437 1438 1443
1455 1455 1455 1450 1446 1446 1469 1466 1458 1452 1451 1448 1444 1435 1433 1431 1422 1418 1415 1411 1413 1408 1401 1399 1401 1421 1418 1419 1420 1429 1429 1435 1439 1456 1463 1463 1455 1433 1430 1428 1430 1430 1429 1430 1435
1458 1462 1459 1451 1452 1464 1474 1469 1463 1454 1451 1450 1448 1442 1440 1433 1422 1420 1422 1422 1419 1415 1404 1403 1401 1419 1416 1416 1414 1418 1420 1432 1436 1449 1461 1467 1447 1422 1422 1422 1423 1423 1425 1428 1433
1463 1465 1464 1455 1474 1474 1471 1469 1466 1460 1455 1450 1449 1446 1442 1437 1432 1423 1422 1424 1421 1413 1406 1405 1409 1416 1421 1419 1417 1417 1419 1419 1422 1435 1444 1448 1443 1425 1423 1421 1421 1422 1424 1427 1431
1468 1473 1470 1469 1477 1477 1475 1471 1468 1464 1460 1457 1452 1445 1441 1439 1438 1437 1432 1423 1419 1416 1411 1411 1410 1407 1407 1400 1407 1413 1410 1417 1418 1428 1432 1430 1432 1422 1422 1423 1419 1420 1422 1425 1428
1475 1484 1484 1488 1481 1482 1480 1481 1477 1473 1465 1461 1455 1454 1455 1448 1437 1434 1431 1427 1421 1422 1414 1411 1410 1413 1412 1411 1405 1404 1407 1415 1420 1418 1425 1423 1430 1423 1418 1416 1414 1417 1420 1422 1424
1480 1485 1485 1486 1486 1484 1484 1487 1480 1473 1472 1467 1466 1459 1456 1454 1453 1444 1441 1434 1433 1426 1423 1422 1412 1412 1412 1410 1409 1407 1407 1406 1410 1410 1415 1419 1417 1414 1412 1412 1414 1414 1416 1417 1418
1486 1485 1486 1488 1489 1490 1492 1486 1483 1478 1469 1466 1465 1460 1451 1449 1447 1446 1443 1439 1439 1438 1433 1430 1418 1413 1413 1416 1414 1418 1404 1402 1399 1403 1407 1413 1410 1412 1412 1411 1409 1409 1409 1410 1413